Find Starlink 2494

NORAD ID: 48487 Int'l Des: 2021-040 Owner: SPXS Country: US Constellation: starlink operational
LEOCIRCULAR

Live Position

Loading 3D Globe...

About Starlink 2494

Description loading...

Upcoming Passes

Passes for default location (London). Set your location on the main map for personalized predictions.

Altitude History

Loading altitude history...

Two-Line Element Set

1 48487U 21040BM 26127.42027933 .00003848 00000-0 13569-3 0 9996
2 48487 53.1593 280.9596 0001156 80.1652 279.9480 15.31705571275461
Epoch: May 7, 2026 • Age: 11 hours

Current Status

Altitude 470.5 km
Velocity 7.63 km/s
Sub-Earth Point 15.74°N, 108.2°E
Launch Date May 9, 2021
Age 4.9 years
Type internet

Technical Details

Classification Payload
Mass 260.00 kg
Dry Mass 248.00 kg
Total Mass 260.00 kg
Length 0.20 m
Diameter 2.80 m
Span 9.00 m
Shape Box + pan
Manufacturer SPXS
Bus Type Starlink
Phase Status In Orbit
Owner/State SPXS/US

Most Searched